Mount Laguna

United States     32˚56′02″N   116˚28′55″W
temp.,
°C
wind,
m/s
gust,
m/s
humid.,
%
clouds,
%
prec.,
mm/h
press.,
hPa
HPBL,
m
27 november, fri
fri2701:00+3˚e33280 0.0 102034
04:00+2˚e33270 0.0 102132
07:00+3˚e34250 0.0 102242
10:00+10˚ene56120 0.0 1023676
13:00+12˚ene45120 0.0 1021787
16:00+10˚e34150 0.0 1021325
19:00+5˚e33190 0.0 102229
22:00+4˚e23210 0.0 102328
28 november, sat
sat2801:00+4˚e33210 0.0 102232
04:00+4˚e33230 0.0 102232
07:00+4˚e23290 0.0 102333
10:00+12˚ene34190 0.0 1023483
13:00+14˚ene33170 0.0 1020680
16:00+12˚ene22220 0.0 101951
19:00+5˚ene22290 0.0 102023
22:00+4˚e22430 0.0 102024
29 november, sun
sun2901:00+4˚e11420 0.0 101923
04:00+3˚e12418 0.0 101923
07:00+4˚e22426 0.0 102024
10:00+15˚ene33143 0.0 1020373
13:00+17˚ene32110 0.0 1018643
16:00+13˚e22170 0.0 101823
19:00+6˚e11340 0.0 101922
22:00+6˚e12330 0.0 102022
30 november, mon
mon3001:00+5˚e123328 0.0 101923
04:00+6˚ese123461 0.0 102022
07:00+5˚e223537 0.0 102123
10:00+15˚ene331219 0.0 1021511
13:00+16˚ene33120 0.0 1019631
16:00+13˚e23180 0.0 101939
19:00+7˚e22220 0.0 101924
22:00+5˚e11400 0.0 101922
1 december, tue
tue101:00+5˚e11400 0.0 101822
04:00+4˚e11390 0.0 101822
07:00+5˚e11400 0.0 101822
10:00+16˚ene22140 0.0 1019353
13:00+19˚ene21120 0.0 1016634
16:00+14˚e22180 0.0 101627
19:00+8˚ese11190 0.0 101623
22:00+7˚e12350 0.0 101722